Time,TemperatureF,DewpointF,PressureIn,WindDirection,WindDirectionDegrees,WindSpeedMPH,WindSpeedGustMPH,Humidity,HourlyPrecipIn,Conditions,Clouds,dailyrainin,SoftwareType,DateUTC
2013-01-20 00:00:00,41.0,28.0,29.97,SSW,207,11.0,18.0,59,-99.99,,,-99.99,,2013-01-20 05:00:00,
2013-01-20 00:23:00,41.0,28.0,29.97,SSW,207,11.0,18.0,59,-99.99,,,-99.99,,2013-01-20 05:23:00,
2013-01-20 00:33:00,41.0,28.0,29.97,SSW,207,11.0,18.0,59,-99.99,,,-99.99,,2013-01-20 05:33:00,
2013-01-20 00:43:00,41.0,28.0,29.97,SSW,207,11.0,18.0,59,-99.99,,,-99.99,,2013-01-20 05:43:00,
2013-01-20 00:53:00,41.0,28.0,29.97,SSW,207,11.0,18.0,59,-99.99,,,-99.99,,2013-01-20 05:53:00,
2013-01-20 01:00:00,41.0,28.0,29.91,SW,225,12.0,18.0,60,-99.99,,,-99.99,,2013-01-20 06:00:00,
2013-01-20 01:22:00,41.0,28.0,29.91,SW,225,12.0,18.0,60,-99.99,,,-99.99,,2013-01-20 06:22:00,
2013-01-20 01:33:00,41.0,28.0,29.91,SW,225,12.0,18.0,60,-99.99,,,-99.99,,2013-01-20 06:33:00,
2013-01-20 01:43:00,41.0,28.0,29.91,SW,225,12.0,18.0,60,-99.99,,,-99.99,,2013-01-20 06:43:00,
2013-01-20 01:53:00,41.0,28.0,29.91,SW,225,12.0,18.0,60,-99.99,,,-99.99,,2013-01-20 06:53:00,
2013-01-20 02:00:00,42.0,28.0,29.91,SW,232,9.0,16.0,58,-99.99,,,-99.99,,2013-01-20 07:00:00,
2013-01-20 02:22:00,42.0,28.0,29.91,SW,232,9.0,16.0,58,-99.99,,,-99.99,,2013-01-20 07:22:00,
2013-01-20 02:32:00,42.0,28.0,29.91,SW,232,9.0,16.0,58,-99.99,,,-99.99,,2013-01-20 07:32:00,
2013-01-20 02:42:00,42.0,28.0,29.91,SW,232,9.0,16.0,58,-99.99,,,-99.99,,2013-01-20 07:42:00,
2013-01-20 02:52:00,42.0,28.0,29.91,SW,232,9.0,16.0,58,-99.99,,,-99.99,,2013-01-20 07:52:00,
2013-01-20 03:00:00,42.0,28.0,29.88,SW,217,9.0,20.0,57,-99.99,,,-99.99,,2013-01-20 08:00:00,
2013-01-20 03:22:00,42.0,28.0,29.88,SW,217,9.0,20.0,57,-99.99,,,-99.99,,2013-01-20 08:22:00,
2013-01-20 03:32:00,42.0,28.0,29.88,SW,217,9.0,20.0,57,-99.99,,,-99.99,,2013-01-20 08:32:00,
2013-01-20 03:42:00,42.0,28.0,29.88,SW,217,9.0,20.0,57,-99.99,,,-99.99,,2013-01-20 08:42:00,
2013-01-20 03:53:00,42.0,28.0,29.88,SW,217,9.0,20.0,57,-99.99,,,-99.99,,2013-01-20 08:53:00,
2013-01-20 04:00:00,42.0,28.0,29.85,SW,232,16.0,22.0,57,-99.99,,,-99.99,,2013-01-20 09:00:00,
2013-01-20 04:22:00,42.0,28.0,29.85,SW,232,16.0,22.0,57,-99.99,,,-99.99,,2013-01-20 09:22:00,
2013-01-20 04:33:00,42.0,28.0,29.85,SW,232,16.0,22.0,57,-99.99,,,-99.99,,2013-01-20 09:33:00,
2013-01-20 04:42:00,42.0,28.0,29.85,SW,232,16.0,22.0,57,-99.99,,,-99.99,,2013-01-20 09:42:00,
2013-01-20 04:53:00,42.0,28.0,29.85,SW,232,16.0,22.0,57,-99.99,,,-99.99,,2013-01-20 09:53:00,
2013-01-20 05:00:00,42.0,28.0,29.83,SW,220,12.0,22.0,58,-99.99,,,-99.99,,2013-01-20 10:00:00,
2013-01-20 05:23:00,42.0,28.0,29.83,SW,220,12.0,22.0,58,-99.99,,,-99.99,,2013-01-20 10:23:00,
2013-01-20 05:33:00,42.0,28.0,29.83,SW,220,12.0,22.0,58,-99.99,,,-99.99,,2013-01-20 10:33:00,
2013-01-20 05:42:00,42.0,28.0,29.83,SW,220,12.0,22.0,58,-99.99,,,-99.99,,2013-01-20 10:42:00,
2013-01-20 05:53:00,42.0,28.0,29.83,SW,220,12.0,22.0,58,-99.99,,,-99.99,,2013-01-20 10:53:00,
2013-01-20 06:00:00,41.0,28.0,29.83,WSW,247,6.0,19.0,59,-99.99,,,-99.99,,2013-01-20 11:00:00,
2013-01-20 06:22:00,41.0,28.0,29.83,WSW,247,6.0,19.0,59,-99.99,,,-99.99,,2013-01-20 11:22:00,
2013-01-20 06:33:00,41.0,28.0,29.83,WSW,247,6.0,19.0,59,-99.99,,,-99.99,,2013-01-20 11:33:00,
2013-01-20 06:43:00,41.0,28.0,29.83,WSW,247,6.0,19.0,59,-99.99,,,-99.99,,2013-01-20 11:43:00,
2013-01-20 06:54:00,41.0,28.0,29.83,WSW,247,6.0,19.0,59,-99.99,,,-99.99,,2013-01-20 11:54:00,
2013-01-20 07:00:00,40.0,28.0,29.80,SW,224,8.0,14.0,61,-99.99,,,-99.99,,2013-01-20 12:00:00,
2013-01-20 07:23:00,40.0,28.0,29.80,SW,224,8.0,14.0,61,-99.99,,,-99.99,,2013-01-20 12:23:00,
2013-01-20 07:33:00,40.0,28.0,29.80,SW,224,8.0,14.0,61,-99.99,,,-99.99,,2013-01-20 12:33:00,
2013-01-20 07:43:00,40.0,28.0,29.80,SW,224,8.0,14.0,61,-99.99,,,-99.99,,2013-01-20 12:43:00,
2013-01-20 07:53:00,40.0,28.0,29.80,SW,224,8.0,14.0,61,-99.99,,,-99.99,,2013-01-20 12:53:00,
2013-01-20 08:00:00,40.0,28.0,29.80,SW,222,8.0,13.0,61,-99.99,,,-99.99,,2013-01-20 13:00:00,
2013-01-20 08:23:00,40.0,28.0,29.80,SW,222,8.0,13.0,61,-99.99,,,-99.99,,2013-01-20 13:23:00,
2013-01-20 08:33:00,40.0,28.0,29.80,SW,222,8.0,13.0,61,-99.99,,,-99.99,,2013-01-20 13:33:00,
2013-01-20 08:43:00,40.0,28.0,29.80,SW,222,8.0,13.0,61,-99.99,,,-99.99,,2013-01-20 13:43:00,
2013-01-20 08:53:00,40.0,28.0,29.80,SW,222,8.0,13.0,61,-99.99,,,-99.99,,2013-01-20 13:53:00,
2013-01-20 09:00:00,45.0,29.0,29.80,SSW,210,8.0,16.0,54,-99.99,,,-99.99,,2013-01-20 14:00:00,
2013-01-20 09:23:00,45.0,29.0,29.80,SSW,210,8.0,16.0,54,-99.99,,,-99.99,,2013-01-20 14:23:00,
2013-01-20 09:33:00,45.0,29.0,29.80,SSW,210,8.0,16.0,54,-99.99,,,-99.99,,2013-01-20 14:33:00,
2013-01-20 09:43:00,45.0,29.0,29.80,SSW,210,8.0,16.0,54,-99.99,,,-99.99,,2013-01-20 14:43:00,
2013-01-20 09:53:00,45.0,29.0,29.80,SSW,210,8.0,16.0,54,-99.99,,,-99.99,,2013-01-20 14:53:00,
2013-01-20 10:00:00,50.0,30.0,29.83,SW,229,11.0,21.0,46,-99.99,,,-99.99,,2013-01-20 15:00:00,
2013-01-20 10:23:00,50.0,30.0,29.83,SW,229,11.0,21.0,46,-99.99,,,-99.99,,2013-01-20 15:23:00,
2013-01-20 10:33:00,50.0,30.0,29.83,SW,229,11.0,21.0,46,-99.99,,,-99.99,,2013-01-20 15:33:00,
2013-01-20 10:43:00,50.0,30.0,29.83,SW,229,11.0,21.0,46,-99.99,,,-99.99,,2013-01-20 15:43:00,
2013-01-20 10:53:00,50.0,30.0,29.83,SW,229,11.0,21.0,46,-99.99,,,-99.99,,2013-01-20 15:53:00,
2013-01-20 11:00:00,53.0,29.0,29.80,SW,234,15.0,27.0,39,-99.99,,,-99.99,,2013-01-20 16:00:00,
2013-01-20 11:33:00,53.0,29.0,29.80,SW,234,15.0,27.0,39,-99.99,,,-99.99,,2013-01-20 16:33:00,
2013-01-20 11:43:00,53.0,29.0,29.80,SW,234,15.0,27.0,39,-99.99,,,-99.99,,2013-01-20 16:43:00,
2013-01-20 11:53:00,53.0,29.0,29.80,SW,234,15.0,27.0,39,-99.99,,,-99.99,,2013-01-20 16:53:00,
2013-01-20 12:00:00,55.0,29.0,29.77,South,189,10.0,23.0,36,-99.99,,,-99.99,,2013-01-20 17:00:00,
2013-01-20 12:23:00,55.0,29.0,29.77,South,189,10.0,23.0,36,-99.99,,,-99.99,,2013-01-20 17:23:00,
2013-01-20 12:33:00,55.0,29.0,29.77,South,189,10.0,23.0,36,-99.99,,,-99.99,,2013-01-20 17:33:00,
2013-01-20 12:43:00,55.0,29.0,29.77,South,189,10.0,23.0,36,-99.99,,,-99.99,,2013-01-20 17:43:00,
2013-01-20 12:53:00,55.0,29.0,29.77,South,189,10.0,23.0,36,-99.99,,,-99.99,,2013-01-20 17:53:00,
2013-01-20 13:00:00,55.0,27.0,29.77,WSW,250,20.0,29.0,33,-99.99,,,-99.99,,2013-01-20 18:00:00,
2013-01-20 13:24:00,55.0,27.0,29.77,WSW,250,20.0,29.0,33,-99.99,,,-99.99,,2013-01-20 18:24:00,
2013-01-20 13:33:00,55.0,27.0,29.77,WSW,250,20.0,29.0,33,-99.99,,,-99.99,,2013-01-20 18:33:00,
2013-01-20 13:43:00,55.0,27.0,29.77,WSW,250,20.0,29.0,33,-99.99,,,-99.99,,2013-01-20 18:43:00,
2013-01-20 13:53:00,55.0,27.0,29.77,WSW,250,20.0,29.0,33,-99.99,,,-99.99,,2013-01-20 18:53:00,
2013-01-20 14:00:00,55.0,28.0,29.74,West,276,6.0,29.0,34,-99.99,,,-99.99,,2013-01-20 19:00:00,
2013-01-20 14:23:00,55.0,28.0,29.74,West,276,6.0,29.0,34,-99.99,,,-99.99,,2013-01-20 19:23:00,
2013-01-20 14:33:00,55.0,28.0,29.74,West,276,6.0,29.0,34,-99.99,,,-99.99,,2013-01-20 19:33:00,
2013-01-20 14:43:00,55.0,28.0,29.74,West,276,6.0,29.0,34,-99.99,,,-99.99,,2013-01-20 19:43:00,
2013-01-20 14:53:00,55.0,28.0,29.74,West,276,6.0,29.0,34,-99.99,,,-99.99,,2013-01-20 19:53:00,
2013-01-20 15:00:00,55.0,28.0,29.77,WSW,248,9.0,22.0,35,-99.99,,,-99.99,,2013-01-20 20:00:00,
2013-01-20 15:23:00,55.0,28.0,29.77,WSW,248,9.0,22.0,35,-99.99,,,-99.99,,2013-01-20 20:23:00,
2013-01-20 15:33:00,55.0,28.0,29.77,WSW,248,9.0,22.0,35,-99.99,,,-99.99,,2013-01-20 20:33:00,
2013-01-20 15:42:00,55.0,28.0,29.77,WSW,248,9.0,22.0,35,-99.99,,,-99.99,,2013-01-20 20:42:00,
2013-01-20 15:54:00,55.0,28.0,29.77,WSW,248,9.0,22.0,35,-99.99,,,-99.99,,2013-01-20 20:54:00,
2013-01-20 16:00:00,55.0,24.0,29.80,NW,308,12.0,29.0,30,-99.99,,,-99.99,,2013-01-20 21:00:00,
2013-01-20 16:33:00,55.0,24.0,29.80,NW,308,12.0,29.0,30,-99.99,,,-99.99,,2013-01-20 21:33:00,
2013-01-20 16:43:00,55.0,24.0,29.80,NW,308,12.0,29.0,30,-99.99,,,-99.99,,2013-01-20 21:43:00,
2013-01-20 16:53:00,55.0,24.0,29.80,NW,308,12.0,29.0,30,-99.99,,,-99.99,,2013-01-20 21:53:00,
2013-01-20 17:00:00,51.0,18.0,29.83,WNW,283,10.0,23.0,27,-99.99,,,-99.99,,2013-01-20 22:00:00,
2013-01-20 17:23:00,51.0,18.0,29.83,WNW,283,10.0,23.0,27,-99.99,,,-99.99,,2013-01-20 22:23:00,
2013-01-20 17:33:00,51.0,18.0,29.83,WNW,283,10.0,23.0,27,-99.99,,,-99.99,,2013-01-20 22:33:00,
2013-01-20 17:43:00,51.0,18.0,29.83,WNW,283,10.0,23.0,27,-99.99,,,-99.99,,2013-01-20 22:43:00,
2013-01-20 17:53:00,51.0,18.0,29.83,WNW,283,10.0,23.0,27,-99.99,,,-99.99,,2013-01-20 22:53:00,
2013-01-20 18:00:00,48.0,15.0,29.88,West,278,7.0,23.0,26,-99.99,,,-99.99,,2013-01-20 23:00:00,
2013-01-20 18:23:00,48.0,15.0,29.88,West,278,7.0,23.0,26,-99.99,,,-99.99,,2013-01-20 23:23:00,
2013-01-20 18:33:00,48.0,15.0,29.88,West,278,7.0,23.0,26,-99.99,,,-99.99,,2013-01-20 23:33:00,
2013-01-20 18:43:00,48.0,15.0,29.88,West,278,7.0,23.0,26,-99.99,,,-99.99,,2013-01-20 23:43:00,
2013-01-20 18:53:00,48.0,15.0,29.88,West,278,7.0,23.0,26,-99.99,,,-99.99,,2013-01-20 23:53:00,
2013-01-20 19:00:00,45.0,13.0,29.91,NNW,339,11.0,21.0,27,-99.99,,,-99.99,,2013-01-21 00:00:00,
2013-01-20 19:23:00,45.0,13.0,29.91,NNW,339,11.0,21.0,27,-99.99,,,-99.99,,2013-01-21 00:23:00,
2013-01-20 19:33:00,45.0,13.0,29.91,NNW,339,11.0,21.0,27,-99.99,,,-99.99,,2013-01-21 00:33:00,
2013-01-20 19:43:00,45.0,13.0,29.91,NNW,339,11.0,21.0,27,-99.99,,,-99.99,,2013-01-21 00:43:00,
2013-01-20 19:54:00,45.0,13.0,29.91,NNW,339,11.0,21.0,27,-99.99,,,-99.99,,2013-01-21 00:54:00,
2013-01-20 20:00:00,41.0,13.0,29.94,NNW,338,10.0,20.0,32,-99.99,,,-99.99,,2013-01-21 01:00:00,
2013-01-20 20:23:00,41.0,13.0,29.94,NNW,338,10.0,20.0,32,-99.99,,,-99.99,,2013-01-21 01:23:00,
2013-01-20 20:33:00,41.0,13.0,29.94,NNW,338,10.0,20.0,32,-99.99,,,-99.99,,2013-01-21 01:33:00,
2013-01-20 20:43:00,41.0,13.0,29.94,NNW,338,10.0,20.0,32,-99.99,,,-99.99,,2013-01-21 01:43:00,
2013-01-20 20:53:00,41.0,13.0,29.94,NNW,338,10.0,20.0,32,-99.99,,,-99.99,,2013-01-21 01:53:00,
2013-01-20 21:00:00,39.0,13.0,30.00,WNW,296,8.0,20.0,34,-99.99,,,-99.99,,2013-01-21 02:00:00,
2013-01-20 21:23:00,39.0,13.0,30.00,WNW,296,8.0,20.0,34,-99.99,,,-99.99,,2013-01-21 02:23:00,
2013-01-20 21:33:00,39.0,13.0,30.00,WNW,296,8.0,20.0,34,-99.99,,,-99.99,,2013-01-21 02:33:00,
2013-01-20 21:43:00,39.0,13.0,30.00,WNW,296,8.0,20.0,34,-99.99,,,-99.99,,2013-01-21 02:43:00,
2013-01-20 21:53:00,39.0,13.0,30.00,WNW,296,8.0,20.0,34,-99.99,,,-99.99,,2013-01-21 02:53:00,
2013-01-20 22:00:00,36.0,12.0,30.03,NNW,335,5.0,19.0,37,-99.99,,,-99.99,,2013-01-21 03:00:00,
2013-01-20 22:33:00,36.0,12.0,30.03,NNW,335,5.0,19.0,37,-99.99,,,-99.99,,2013-01-21 03:33:00,
2013-01-20 22:43:00,36.0,12.0,30.03,NNW,335,5.0,19.0,37,-99.99,,,-99.99,,2013-01-21 03:43:00,
2013-01-20 22:54:00,36.0,12.0,30.03,NNW,335,5.0,19.0,37,-99.99,,,-99.99,,2013-01-21 03:54:00,
2013-01-20 23:00:00,33.0,12.0,30.06,NW,317,1.0,9.0,42,-99.99,,,-99.99,,2013-01-21 04:00:00,
2013-01-20 23:23:00,33.0,12.0,30.06,NW,317,1.0,9.0,42,-99.99,,,-99.99,,2013-01-21 04:23:00,
2013-01-20 23:33:00,33.0,12.0,30.06,NW,317,1.0,9.0,42,-99.99,,,-99.99,,2013-01-21 04:33:00,
2013-01-20 23:43:00,33.0,12.0,30.06,NW,317,1.0,9.0,42,-99.99,,,-99.99,,2013-01-21 04:43:00,
2013-01-20 23:53:00,33.0,12.0,30.06,NW,317,1.0,9.0,42,-99.99,,,-99.99,,2013-01-21 04:53:00,